Satellite: NOAA-11
Catalog number: 19531
Epoch time: 07129.87278997
Element set: 0647
Inclination: 098.8099 deg
RA of node: 219.5121 deg
Eccentricity: 0.0012255
Arg of perigee: 137.0856 deg
Mean anomaly: 223.1287 deg
Mean motion: 14.14845214 rev/day
Decay rate: 2.22e-06 rev/day^2
Epoch rev: 96073
Checksum: 323
Satellite: NOAA-12
Catalog number: 21263
Epoch time: 07129.97987170
Element set: 0143
Inclination: 098.7514 deg
RA of node: 127.2857 deg
Eccentricity: 0.0012223
Arg of perigee: 215.1074 deg
Mean anomaly: 144.9298 deg
Mean motion: 14.25526863 rev/day
Decay rate: -1.42e-06 rev/day^2
Epoch rev: 83080
Checksum: 304
Satellite: MET-3/5
Catalog number: 21655
Epoch time: 07130.87132106
Element set: 263
Inclination: 082.5528 deg
RA of node: 029.3034 deg
Eccentricity: 0.0012736
Arg of perigee: 307.1447 deg
Mean anomaly: 052.8504 deg
Mean motion: 13.17011055 rev/day
Decay rate: 5.1e-07 rev/day^2
Epoch rev: 75649
Checksum: 269
Satellite: MET-2/21
Catalog number: 22782
Epoch time: 07130.40363227
Element set: 820
Inclination: 082.5475 deg
RA of node: 071.8872 deg
Eccentricity: 0.0022232
Arg of perigee: 346.8069 deg
Mean anomaly: 013.2517 deg
Mean motion: 13.83616641 rev/day
Decay rate: 7.1e-07 rev/day^2
Epoch rev: 69129
Checksum: 289
Satellite: OKEAN-4
Catalog number: 23317
Epoch time: 07130.45052556
Element set: 257
Inclination: 082.5389 deg
RA of node: 331.7462 deg
Eccentricity: 0.0023117
Arg of perigee: 021.0974 deg
Mean anomaly: 339.1200 deg
Mean motion: 14.82498402 rev/day
Decay rate: 1.22e-06 rev/day^2
Epoch rev: 67846
Checksum: 281
Satellite: NOAA-14
Catalog number: 23455
Epoch time: 07129.71955725
Element set: 0627
Inclination: 098.9890 deg
RA of node: 195.6940 deg
Eccentricity: 0.0009198
Arg of perigee: 203.4812 deg
Mean anomaly: 156.5927 deg
Mean motion: 14.13717817 rev/day
Decay rate: 2.08e-06 rev/day^2
Epoch rev: 63720
Checksum: 336
Satellite: SICH-1
Catalog number: 23657
Epoch time: 07129.78989592
Element set: 0061
Inclination: 082.5253 deg
RA of node: 113.2956 deg
Eccentricity: 0.0024462
Arg of perigee: 013.9210 deg
Mean anomaly: 346.2705 deg
Mean motion: 14.81478908 rev/day
Decay rate: 2.09e-06 rev/day^2
Epoch rev: 63034
Checksum: 307
Satellite: NOAA-15
Catalog number: 25338
Epoch time: 07129.96503151
Element set: 0986
Inclination: 098.5305 deg
RA of node: 127.7279 deg
Eccentricity: 0.0011290
Arg of perigee: 136.7431 deg
Mean anomaly: 223.4655 deg
Mean motion: 14.24639358 rev/day
Decay rate: 3.0e-07 rev/day^2
Epoch rev: 46724
Checksum: 311
Satellite: RESURS
Catalog number: 25394
Epoch time: 07129.77729476
Element set: 636
Inclination: 098.4404 deg
RA of node: 185.8203 deg
Eccentricity: 0.0001215
Arg of perigee: 343.0119 deg
Mean anomaly: 017.1019 deg
Mean motion: 14.24134907 rev/day
Decay rate: 2.1e-07 rev/day^2
Epoch rev: 45888
Checksum: 292
Satellite: FENGYUN1
Catalog number: 25730
Epoch time: 07130.81566835
Element set: 100
Inclination: 098.6890 deg
RA of node: 116.1033 deg
Eccentricity: 0.0019500
Arg of perigee: 232.5586 deg
Mean anomaly: 127.3824 deg
Mean motion: 14.07474374 rev/day
Decay rate: 6.66e-06 rev/day^2
Epoch rev: 41221
Checksum: 278
Satellite: OKEAN-0
Catalog number: 25860
Epoch time: 07130.61038822
Element set: 48
Inclination: 097.7311 deg
RA of node: 134.6169 deg
Eccentricity: 0.0001693
Arg of perigee: 093.7147 deg
Mean anomaly: 266.4251 deg
Mean motion: 14.73450114 rev/day
Decay rate: 6.2e-07 rev/day^2
Epoch rev: 41996
Checksum: 286
Satellite: NOAA-16
Catalog number: 26536
Epoch time: 07129.93658852
Element set: 0399
Inclination: 099.1141 deg
RA of node: 106.2181 deg
Eccentricity: 0.0009702
Arg of perigee: 282.4136 deg
Mean anomaly: 077.5966 deg
Mean motion: 14.12423005 rev/day
Decay rate: -1.01e-06 rev/day^2
Epoch rev: 34170
Checksum: 293
Satellite: NOAA-17
Catalog number: 27453
Epoch time: 07129.94024475
Element set: 0411
Inclination: 098.5799 deg
RA of node: 200.1552 deg
Eccentricity: 0.0011643
Arg of perigee: 200.5262 deg
Mean anomaly: 159.5453 deg
Mean motion: 14.23877151 rev/day
Decay rate: 2.20e-06 rev/day^2
Epoch rev: 25327
Checksum: 287
Satellite: NOAA-18
Catalog number: 28654
Epoch time: 07129.75033416
Element set: 0948
Inclination: 098.8270 deg
RA of node: 071.6817 deg
Eccentricity: 0.0014817
Arg of perigee: 020.8163 deg
Mean anomaly: 339.3606 deg
Mean motion: 14.11062516 rev/day
Decay rate: 3.88e-06 rev/day^2
Epoch rev: 10143
Checksum: 303
/EX
SB KEPS @ AMSAT $ORB07130.M
Orbital Elements 07130.MISC
HR AMSAT ORBITAL ELEMENTS FOR MANNED AND MISCELLANEOUS SATELLITES
FROM WA5QGD FORT WORTH,TX May 10, 2007
Send SUBSCRIBE KEPS/UNSUBSCRIBE KEPS to majordomo(a)amsat.org only
BID: ORB07130.M
TO ALL RADIO AMATEURS BT
Satellite: HUBBLE
Catalog number: 20580
Epoch time: 07130.88710561
Element set: 871
Inclination: 028.4672 deg
RA of node: 073.3402 deg
Eccentricity: 0.0003819
Arg of perigee: 068.5622 deg
Mean anomaly: 291.5374 deg
Mean motion: 15.00234404 rev/day
Decay rate: 3.73e-06 rev/day^2
Epoch rev: 73435
Checksum: 274
Satellite: UARS
Catalog number: 21701
Epoch time: 07129.98736260
Element set: 0064
Inclination: 056.9715 deg
RA of node: 119.6704 deg
Eccentricity: 0.0099239
Arg of perigee: 117.0216 deg
Mean anomaly: 244.1032 deg
Mean motion: 15.47822287 rev/day
Decay rate: 4.967e-05 rev/day^2
Epoch rev: 85983
Checksum: 321
Satellite: PO-34
Catalog number: 25520
Epoch time: 07129.95229422
Element set: 0736
Inclination: 028.4602 deg
RA of node: 004.6481 deg
Eccentricity: 0.0005836
Arg of perigee: 197.6688 deg
Mean anomaly: 162.3709 deg
Mean motion: 15.16987414 rev/day
Decay rate: 4.65e-06 rev/day^2
Epoch rev: 47171
Checksum: 322
Satellite: ISS
Catalog number: 25544
Epoch time: 07130.96372788
Element set: 182
Inclination: 051.6360 deg
RA of node: 296.2310 deg
Eccentricity: 0.0009980
Arg of perigee: 168.2984 deg
Mean anomaly: 336.0543 deg
Mean motion: 15.77784403 rev/day
Decay rate: 1.7433e-04 rev/day^2
Epoch rev: 48489
Checksum: 328
Satellite: OO-38
Catalog number: 26063
Epoch time: 07130.60913237
Element set: 906
Inclination: 100.2275 deg
RA of node: 126.2913 deg
Eccentricity: 0.0036441
Arg of perigee: 265.8821 deg
Mean anomaly: 093.8184 deg
Mean motion: 14.35804221 rev/day
Decay rate: -3.0e-07 rev/day^2
Epoch rev: 38165
Checksum: 277
Satellite: UWE-1
Catalog number: 28892
Epoch time: 07129.95678184
Element set: 0743
Inclination: 098.1341 deg
RA of node: 027.3519 deg
Eccentricity: 0.0016321
Arg of perigee: 231.1577 deg
Mean anomaly: 128.8165 deg
Mean motion: 14.59498208 rev/day
Decay rate: 1.18e-06 rev/day^2
Epoch rev: 08163
Checksum: 322
Satellite: CO-58
Catalog number: 28895
Epoch time: 07129.73103329
Element set: 0723
Inclination: 098.1381 deg
RA of node: 027.3281 deg
Eccentricity: 0.0016847
Arg of perigee: 231.4836 deg
Mean anomaly: 128.4851 deg
Mean motion: 14.59546685 rev/day
Decay rate: 1.11e-06 rev/day^2
Epoch rev: 08148
Checksum: 326
Satellite: NCUBE2
Catalog number: 28897
Epoch time: 07130.70122736
Element set: 248
Inclination: 098.1349 deg
RA of node: 028.2390 deg
Eccentricity: 0.0016204
Arg of perigee: 230.2817 deg
Mean anomaly: 129.6961 deg
Mean motion: 14.59709044 rev/day
Decay rate: 1.80e-06 rev/day^2
Epoch rev: 7390
Checksum: 297
Satellite: NMARS
Catalog number: 29662
Epoch time: 07126.39603970
Element set: 263
Inclination: 051.6121 deg
RA of node: 302.3682 deg
Eccentricity: 0.0004459
Arg of perigee: 252.1654 deg
Mean anomaly: 110.7411 deg
Mean motion: 16.47981436 rev/day
Decay rate: 7.031946e-02 rev/day^2
Epoch rev: 2165
Checksum: 289
Satellite: FCAL
Catalog number: 29667
Epoch time: 07130.87437127
Element set: 134
Inclination: 051.6360 deg
RA of node: 289.7909 deg
Eccentricity: 0.0015064
Arg of perigee: 197.2946 deg
Mean anomaly: 162.7547 deg
Mean motion: 15.86865503 rev/day
Decay rate: 2.0884e-04 rev/day^2
Epoch rev: 2207
Checksum: 326
Satellite: FALCON
Catalog number: 30776
Epoch time: 07129.98407340
Element set: 0056
Inclination: 035.4328 deg
RA of node: 084.2490 deg
Eccentricity: 0.0000193
Arg of perigee: 171.4620 deg
Mean anomaly: 188.6098 deg
Mean motion: 15.02697033 rev/day
Decay rate: 2.80e-06 rev/day^2
Epoch rev: 00930
Checksum: 281
Satellite: MAST
Catalog number: 31126
Epoch time: 07130.73613529
Element set: 28
Inclination: 098.0826 deg
RA of node: 205.1622 deg
Eccentricity: 0.0095742
Arg of perigee: 141.0493 deg
Mean anomaly: 219.7637 deg
Mean motion: 14.53337576 rev/day
Decay rate: 3.95e-06 rev/day^2
Epoch rev: 341
Checksum: 283
Satellite: CAPE1
Catalog number: 31130
Epoch time: 07129.93314808
Element set: 0022
Inclination: 098.0821 deg
RA of node: 204.3316 deg
Eccentricity: 0.0104149
Arg of perigee: 143.7103 deg
Mean anomaly: 217.1228 deg
Mean motion: 14.51847871 rev/day
Decay rate: 2.21e-06 rev/day^2
Epoch rev: 00306
Checksum: 245
/EX